St. Paul, MN

10:21 PM CDT on October 20, 2017 (GMT -0500)
Saint Paul Downtown-Holman

Weather History for KSTP - June, 2013

Change the Weather History Date:

Sunday, June 9, 2013

  Actual Average Record
Temperature  
Mean Temperature 62 °F -  
Max Temperature 68 °F 73 °F 91 °F (2012)
Min Temperature 57 °F 54 °F 50 °F (2003)
Degree Days  
Heating Degree Days 4    
Growing Degree Days 12 (Base 50)    
Moisture  
Dew Point 56 °F    
Average Humidity 84    
Maximum Humidity 94    
Minimum Humidity 67    
Precipitation  
Precipitation 0.41 in - - ()
Sea Level Pressure  
Sea Level Pressure 29.82 in    
Wind  
Wind Speed 8 mph (ESE)    
Max Wind Speed 14 mph    
Max Gust Speed 26 mph    
Visibility 7 miles    
Events Rain    
Averages and records for this station are not official NWS values.
T = Trace of Precipitation, MM = Missing Value Source: NWS Daily Summary

Daily Weather History Graph

Daily Weather History Graph

Search for Another Location

Airport or City:

Trip Planner

Search our weather history database for the weather conditions in past years. The results will help you decide how hot, cold, wet, or windy it might be!

Date:

Astronomy

Jun. 09, 2013 Rise Set
Actual Time 5:25 AM CDT 8:57 PM CDT
Civil Twilight 4:48 AM CDT 9:34 PM CDT
Nautical Twilight 4:00 AM CDT 10:23 PM CDT
Astronomical Twilight 2:56 AM CDT 11:27 PM CDT
Moon 6:25 AM CDT (6/9) 9:41 PM CDT (6/9)
Length of Visible Light 16h 45m
Length of Day
15h 31m
New Moon, 1% of the Moon is Illuminated
Jun 9
New Moon
Jun 16
First Quarter
Jun 23
Full
Jun 29
Last Quarter
Jul 8
New

Hourly Weather History & Observations

Time (CDT) Temp. Dew Point Humidity Pressure Visibility Wind Dir Wind Speed Gust Speed Precip Events Conditions
12:53 AM 63.0 °F 52.0 °F 67% 29.91 in 10.0 mi SE 9.2 mph - N/A   Mostly Cloudy
1:53 AM 62.1 °F 52.0 °F 70% 29.90 in 10.0 mi ESE 8.1 mph - 0.00 in Rain Light Rain
2:53 AM 60.1 °F 54.0 °F 80% 29.89 in 10.0 mi ESE 6.9 mph - 0.02 in Rain Light Rain
3:53 AM 59.0 °F 54.0 °F 83% 29.87 in 8.0 mi ESE 9.2 mph - 0.05 in Rain Light Rain
4:53 AM 57.9 °F 54.0 °F 87% 29.86 in 7.0 mi SE 8.1 mph - 0.04 in Rain Light Rain
5:53 AM 57.9 °F 54.0 °F 87% 29.84 in 8.0 mi SE 8.1 mph - 0.04 in Rain Light Rain
6:53 AM 57.9 °F 54.0 °F 87% 29.84 in 3.0 mi ESE 9.2 mph - 0.06 in Rain Rain
7:53 AM 57.9 °F 54.0 °F 87% 29.83 in 3.0 mi East 13.8 mph 20.7 mph 0.07 in Rain Light Rain
8:53 AM 57.9 °F 54.0 °F 87% 29.82 in 7.0 mi ESE 13.8 mph 26.5 mph 0.02 in   Overcast
9:53 AM 57.9 °F 53.1 °F 84% 29.81 in 10.0 mi ESE 10.4 mph - 0.00 in Rain Light Rain
10:53 AM 60.1 °F 53.1 °F 78% 29.81 in 10.0 mi ESE 11.5 mph - 0.00 in   Overcast
11:53 AM 60.1 °F 53.1 °F 78% 29.81 in 10.0 mi ESE 9.2 mph - N/A   Overcast
12:09 PM 60.8 °F 53.6 °F 77% 29.82 in 10.0 mi ESE 11.5 mph 17.3 mph N/A   Overcast
12:53 PM 59.0 °F 54.0 °F 83% 29.81 in 3.0 mi ESE 6.9 mph - 0.01 in Rain Light Rain
1:49 PM 59.0 °F 55.4 °F 88% 29.82 in 1.5 mi East 6.9 mph - 0.05 in Rain Light Rain
1:53 PM 59.0 °F 55.9 °F 90% 29.81 in 1.5 mi East 5.8 mph - 0.06 in Rain Light Rain
2:03 PM 59.0 °F 57.2 °F 94% 29.82 in 2.0 mi East 5.8 mph - 0.01 in Rain Light Rain
2:22 PM 59.0 °F 57.2 °F 94% 29.82 in 3.0 mi East 9.2 mph - 0.03 in Rain Light Rain
2:34 PM 59.0 °F 55.4 °F 88% 29.81 in 3.0 mi ESE 9.2 mph - 0.04 in Rain Light Rain
2:41 PM 60.8 °F 57.2 °F 88% 29.81 in 3.0 mi ESE 10.4 mph - 0.04 in Rain Light Rain
2:53 PM 61.0 °F 57.0 °F 87% 29.80 in 7.0 mi ESE 9.2 mph - 0.04 in   Overcast
3:53 PM 63.0 °F 57.9 °F 84% 29.79 in 10.0 mi ESE 9.2 mph - N/A   Overcast
4:53 PM 64.9 °F 59.0 °F 81% 29.80 in 10.0 mi East 9.2 mph - N/A   Overcast
5:09 PM 66.2 °F 59.0 °F 78% 29.80 in 10.0 mi SE 6.9 mph - N/A   Mostly Cloudy
5:53 PM 66.9 °F 60.1 °F 79% 29.78 in 10.0 mi East 9.2 mph - N/A   Mostly Cloudy
5:56 PM 66.2 °F 60.8 °F 83% 29.79 in 10.0 mi East 9.2 mph - N/A   Scattered Clouds
6:36 PM 66.2 °F 59.0 °F 78% 29.79 in 10.0 mi East 6.9 mph - N/A   Mostly Cloudy
6:53 PM 66.9 °F 59.0 °F 76% 29.78 in 10.0 mi East 6.9 mph - N/A   Overcast
7:53 PM 66.0 °F 59.0 °F 78% 29.79 in 10.0 mi East 6.9 mph - N/A   Scattered Clouds
8:53 PM 64.0 °F 59.0 °F 84% 29.80 in 9.0 mi NE 3.5 mph - N/A   Clear
9:53 PM 63.0 °F 59.0 °F 87% 29.81 in 7.0 mi Calm Calm - N/A   Scattered Clouds
10:19 PM 62.6 °F 59.0 °F 88% 29.82 in 6.0 mi Calm Calm - N/A   Mostly Cloudy
10:53 PM 63.0 °F 60.1 °F 90% 29.82 in 8.0 mi East 5.8 mph - N/A   Overcast
11:16 PM 62.6 °F 60.8 °F 94% 29.83 in 7.0 mi East 3.5 mph - N/A   Mostly Cloudy
11:53 PM 63.0 °F 60.1 °F 90% 29.82 in 7.0 mi Calm Calm - N/A   Overcast